Change the Weather History Date:

Thursday, June 6, 2013

  Actual Average Record
Temperature  
Mean Temperature 53 °F -  
Max Temperature 62 °F 70 °F 87 °F (1988)
Min Temperature 45 °F 48 °F 35 °F (1953)
Degree Days  
Heating Degree Days 12    
Growing Degree Days 3 (Base 50)    
Moisture  
Dew Point 43 °F    
Average Humidity 77    
Maximum Humidity 93    
Minimum Humidity 46    
Precipitation  
Precipitation 0.12 in - - ()
Sea Level Pressure  
Sea Level Pressure 30.09 in    
Wind  
Wind Speed 6 mph (East)    
Max Wind Speed 9 mph    
Max Gust Speed -    
Visibility 10 miles    
Events Rain    
Averages and records for this station are not official NWS values.
T = Trace of Precipitation, MM = Missing Value Source: NWS Daily Summary

Daily Weather History Graph

Daily Weather History Graph

Search for Another Location

Airport or City:

Trip Planner

Search our weather history database for the weather conditions in past years. The results will help you decide how hot, cold, wet, or windy it might be!

Date:

Astronomy

Jun. 06, 2013 Rise Set
Actual Time 5:59 AM EDT 9:46 PM EDT
Civil Twilight 5:20 AM EDT 10:25 PM EDT
Nautical Twilight 4:26 AM EDT 11:19 PM EDT
Astronomical Twilight 3:10 AM EDT 12:36 AM EDT
Moon 4:48 AM EDT (6/6) 8:02 PM EDT (6/6)
Length of Visible Light 17h 05m
Length of Day
15h 46m
Waning Crescent, 4% of the Moon is Illuminated
Jun 6
Waning Crescent
Jun 8
New
Jun 16
First Quarter
Jun 23
Full
Jun 30
Last Quarter

Hourly Weather History & Observations

Time (EDT) Temp. Windchill Dew Point Humidity Pressure Visibility Wind Dir Wind Speed Gust Speed Precip Events Conditions
12:53 AM 46.0 °F 43.1 °F 43.0 °F 89% 30.12 in 10.0 mi ESE 5.8 mph - 0.00 in Rain Light Rain
1:53 AM 46.9 °F - 44.1 °F 90% 30.11 in 10.0 mi East 5.8 mph - 0.00 in Rain Light Rain
2:53 AM 46.0 °F 41.9 °F 44.1 °F 93% 30.11 in 6.0 mi ENE 8.1 mph - 0.03 in Rain Light Rain
3:53 AM 46.0 °F 43.1 °F 44.1 °F 93% 30.10 in 10.0 mi East 5.8 mph - 0.01 in   Overcast
4:53 AM 46.9 °F - 44.1 °F 90% 30.09 in 10.0 mi ENE 8.1 mph - 0.00 in Rain Light Rain
5:53 AM 46.0 °F 43.1 °F 44.1 °F 93% 30.10 in 10.0 mi ENE 5.8 mph - 0.01 in Rain Light Rain
6:53 AM 45.0 °F 40.1 °F 43.0 °F 93% 30.11 in 10.0 mi ENE 9.2 mph - 0.00 in Rain Light Rain
7:53 AM 45.0 °F 41.2 °F 43.0 °F 93% 30.12 in 10.0 mi East 6.9 mph - 0.01 in Rain Light Rain
8:53 AM 45.0 °F 40.6 °F 43.0 °F 93% 30.12 in 9.0 mi East 8.1 mph - 0.01 in Rain Light Rain
9:53 AM 46.0 °F 41.9 °F 43.0 °F 89% 30.12 in 8.0 mi ENE 8.1 mph - 0.01 in Rain Light Rain
10:53 AM 48.0 °F - 45.0 °F 89% 30.12 in 9.0 mi ENE 4.6 mph - 0.03 in Rain Light Rain
11:53 AM 48.9 °F - 46.0 °F 90% 30.12 in 10.0 mi East 6.9 mph - 0.01 in   Mostly Cloudy
12:53 PM 52.0 °F - 45.0 °F 77% 30.11 in 10.0 mi East 8.1 mph - 0.00 in   Mostly Cloudy
1:53 PM 55.0 °F - 44.1 °F 67% 30.11 in 10.0 mi East 5.8 mph - N/A   Overcast
2:53 PM 57.0 °F - 43.0 °F 59% 30.10 in 10.0 mi East 8.1 mph - N/A   Mostly Cloudy
3:53 PM 60.1 °F - 39.9 °F 47% 30.09 in 10.0 mi ESE 8.1 mph - N/A   Mostly Cloudy
4:53 PM 61.0 °F - 39.9 °F 46% 30.08 in 10.0 mi East 8.1 mph - N/A   Mostly Cloudy
5:53 PM 59.0 °F - 41.0 °F 51% 30.08 in 10.0 mi Variable 4.6 mph - N/A   Overcast
6:53 PM 57.9 °F - 42.1 °F 56% 30.07 in 10.0 mi ESE 4.6 mph - N/A   Overcast
7:53 PM 59.0 °F - 41.0 °F 51% 30.06 in 10.0 mi SE 6.9 mph - N/A   Clear
8:53 PM 57.9 °F - 39.9 °F 51% 30.06 in 10.0 mi SE 3.5 mph - N/A   Clear
9:53 PM 53.1 °F - 41.0 °F 64% 30.06 in 10.0 mi Calm Calm - N/A   Clear
10:53 PM 45.0 °F 43.5 °F 42.1 °F 90% 30.06 in 10.0 mi NW 3.5 mph - N/A   Scattered Clouds
11:53 PM 46.9 °F - 42.1 °F 83% 30.06 in 10.0 mi NNW 3.5 mph - N/A   Clear